Flag for China Weather past 2 weeks in Tsingtao, Shandong, China

Now
48 °F

Clear.


Feels Like: 48 °F
Forecast: 52 / 68 °F
Wind: 1 mph from Northwest

Location: Qingdao Airport

Current Time: Oct 1, 2014 at 6:21:13 AM

Latest Report: Oct 1, 2014 at 5:00 AM


Visibility: 10 mi

Pressure: 30.12 "Hg

Humidity: 82%

Dew point: 43 °F

Location of TsingtaoLocation

Historic Weather in Tsingtao — Graph

°F

Tsingtao temperature yesterday

Maximum temperature yesterday: 68 °F (at 1:00 PM)
Minimum temperature yesterday: 50 °F (at 5:00 AM)
Average temperature yesterday: 58 °F

Past Weeks' High & Low Weather Summary

 TemperatureHumidityPressure
High82 °F (Sep 21, 1:00 PM)94% (Sep 16, 6:00 AM)30.24 "Hg (Sep 16, 6:00 AM)
Low48 °F (Oct 1, 5:00 AM)26% (Sep 30, 3:00 PM)29.86 "Hg (Sep 20, 2:00 PM)
Average68 °F71%30.02 "Hg
* Reported Sep 16 5:00 AM — Oct 1 5:00 AM, Tsingtao, Weather by CustomWeather, © 2014

Note: Actual official high and low records may vary slightly from our data, if they occured in-between our weather recording intervals... More about our weather records

Advertising

Tsingtao weather history for previous 24 hours

 ConditionsComfort  
Time TempWeatherWind HumidityBarometerVisibility
5:00 AM
Oct 1
48 °FClear.1 mph82%30.12 "Hg10 mi
4:00 AM52 °FClear.3 mph72%30.12 "Hg10 mi
3:00 AM50 °FClear.3 mph76%30.12 "Hg10 mi
2:00 AM50 °FClear.1 mph76%30.15 "Hg10 mi
1:00 AM52 °FClear.1 mph67%30.15 "Hg10 mi
12:00 AM52 °FPassing clouds.3 mph67%30.15 "HgN/A
11:00 PM
Sep 30
54 °FPassing clouds.6 mph67%30.18 "HgN/A
10:00 PM55 °FClear.8 mph59%30.18 "Hg10 mi
9:00 PM55 °FClear.13 mph59%30.18 "Hg10 mi
8:00 PM54 °FClear.10 mph63%30.18 "Hg10 mi
7:00 PM55 °FClear.10 mph59%30.18 "Hg10 mi
6:00 PM59 °FClear.10 mph48%30.18 "Hg10 mi
5:00 PM63 °FSunny.15 mph34%30.15 "Hg10 mi
4:00 PM66 °FSunny.17 mph30%30.15 "Hg10 mi
3:00 PM68 °FSunny.15 mph26%30.15 "Hg10 mi
2:00 PM68 °FPassing clouds.13 mph30%30.15 "HgN/A
1:00 PM68 °FPassing clouds.13 mph28%30.18 "HgN/A
12:00 PM66 °FPassing clouds.13 mph32%30.21 "HgN/A
11:00 AM64 °FPassing clouds.13 mph37%30.21 "HgN/A
10:00 AM61 °FPassing clouds.15 mph39%30.24 "HgN/A
9:00 AM57 °FPassing clouds.17 mph48%30.24 "HgN/A
8:00 AM55 °FSunny.15 mph55%30.24 "Hg10 mi
7:00 AM52 °FSunny.13 mph62%30.24 "Hg10 mi
6:00 AM50 °FSunny.15 mph67%30.21 "Hg10 mi
Weather by CustomWeather, © 2014

See weather overviewHow to use our weather pages